User: anonymous   Login
Location: Unspecified
(0.0000°N, 0.0000°E)
Time: 17:22:37
(UTC+00:00)
Language:

CUBEBUG 1 - Orbit

View from above orbital plane
View from above orbital plane
View from above satellite
View from above satellite

Ground track
Ground track

The orbit data is extracted from the following two-line orbital elements,

1 39153U 13018D   18146.20659131  .00000132  00000-0  24245-4 0  9998
2 39153  97.9779 241.5827 0017377  22.2957 337.9007 14.80392614274349
Epoch (UTC): 26 May 2018 04:57:29
Eccentricity: 0.0017377
inclination: 97.9779°
perigee height: 616 km
apogee height: 640 km
right ascension of ascending node: 241.5827°
argument of perigee: 22.2957°
revolutions per day: 14.80392614
mean anomaly at epoch: 337.9007°
orbit number at epoch: 27434

The dashed part of the orbit path shows where the satellite is in the earth's shadow,  

DLR